Search the data

BODC Cruise Metadata Report for FRV Clupea (74CU) cruise 0692C

Introduction

This report collates information from the BODC cruise inventory and oceanographic databases. It presents

Cruise Inventory Information

Long name FRV Clupea (74CU) cruise 0692C
Short name 0692C
Objectives and Narrative Laying current meter moorings and hydrochemical survey. Coastal Zone Project
Ship FRV Clupea
Departure Port Fraserburgh, United Kingdom
Departure Date 1992-04-10
Arrival Port Fraserburgh, United Kingdom
Arrival Date 1992-04-21
Principal Scientist(s) Philip W Balls (Scottish Office Agriculture and Fisheries Department Aberdeen Marine Laboratory)
Responsible Organisation Scottish Office Agriculture and Fisheries Department Aberdeen Marine Laboratory
Associated Project(s) Coastal Zone Project
IHB Sea Areas Visited North Sea
Marsden Squares Visited 181;3
Work Area Description East coast of Scotland
Work Area Bounding Polygon 55N,5W; 60N,5W; 60N,0E; 55N,0E; 55N,5W
Southern Limit 55N
Northern Limit 60N
Western Limit 5W
Eastern Limit 0E

Cruise Inventory Datasets

Physical oceanography  
CTD stations Quantity: number of stations = 102
Description:  
Current meters Quantity: number of stations = 6
Description: 12 ACM deployed; to be recovered in May 92  
Surface measurements underway (T,S) Quantity: number of measurements = 500
Description:  
Chemical oceanography  
Ammonia Quantity: number of stations = 92
Description:  
Nitrate Quantity: number of stations = 92
Description:  
Phosphate Quantity: number of stations = 100
Description:  
Silicate Quantity: number of stations = 92
Description:  

Cruise Inventory Mooring/Buoy Operations

Latitude Longitude Data type Description
57° 45' N 2° 48' W Current meters deployed 2 ACM
57° 13' N 1° 58' W Current meters deployed 2 ACM
56° 58' N 2° 6' W Current meters deployed 2 ACM
57° 43' N 2° 48' W Current meters deployed 2 ACM, 1 WLR
56° 58' N 2° 9' W Current meters deployed 2 ACM, 1 WLR
57° 13' N 1° 54' W Current meters deployed 2 ACM, 1 thermistor chain
57° 43' N 2° 48' W Sea level (inc. bot. press., inverted echosounder) deployed 2 ACM, 1 WLR
56° 58' N 2° 9' W Sea level (inc. bot. press., inverted echosounder) deployed 2 ACM, 1 WLR
57° 13' N 1° 54' W Subsurface temperature measurements deployed 2 ACM, 1 thermistor chain

Summary of BODC Data Holdings for the Cruise

National Oceanographic Database

Summary

# Series Instrument Description Parameters
102 CTD/STD cast Density of the water column
Electrical conductivity of the water column
Salinity of the water column
Temperature of the water column
Vertical spatial coordinates

Note: Parameter terms are taken from the BODC Parameter Discovery Vocabulary XML (SKOS)

Full List

BODC Reference Instrument Description Date/Time Location  
400077 CTD/STD cast 1992-04-10 20:51Z 57° 51' N, 3° 36' W Click for more
400089 CTD/STD cast 1992-04-11 06:49Z 57° 30' N, 4° 15' W Click for more
400090 CTD/STD cast 1992-04-11 07:23Z 57° 30' N, 4° 11' W Click for more
400108 CTD/STD cast 1992-04-11 07:58Z 57° 33' N, 4° 7' W Click for more
400121 CTD/STD cast 1992-04-11 08:17Z 57° 34' N, 4° 5' W Click for more
400133 CTD/STD cast 1992-04-11 09:03Z 57° 36' N, 3° 58' W Click for more
400145 CTD/STD cast 1992-04-11 09:45Z 57° 39' N, 3° 49' W Click for more
400157 CTD/STD cast 1992-04-11 10:32Z 57° 42' N, 3° 41' W Click for more
400169 CTD/STD cast 1992-04-11 11:23Z 57° 46' N, 3° 33' W Click for more
400170 CTD/STD cast 1992-04-11 12:14Z 57° 49' N, 3° 27' W Click for more
400182 CTD/STD cast 1992-04-11 13:45Z 57° 55' N, 3° 46' W Click for more
400194 CTD/STD cast 1992-04-11 14:24Z 57° 52' N, 3° 54' W Click for more
400201 CTD/STD cast 1992-04-11 20:44Z 57° 46' N, 3° 6' W Click for more
400213 CTD/STD cast 1992-04-11 21:12Z 57° 45' N, 3° 6' W Click for more
400225 CTD/STD cast 1992-04-11 21:38Z 57° 42' N, 3° 6' W Click for more
400237 CTD/STD cast 1992-04-11 21:58Z 57° 42' N, 3° 6' W Click for more
400249 CTD/STD cast 1992-04-11 22:17Z 57° 41' N, 3° 6' W Click for more
400250 CTD/STD cast 1992-04-12 16:38Z 57° 42' N, 2° 0' W Click for more
400262 CTD/STD cast 1992-04-12 17:10Z 57° 42' N, 2° 0' W Click for more
400274 CTD/STD cast 1992-04-12 17:38Z 57° 43' N, 2° 0' W Click for more
400286 CTD/STD cast 1992-04-12 18:10Z 57° 45' N, 2° 0' W Click for more
400298 CTD/STD cast 1992-04-12 18:49Z 57° 47' N, 2° 0' W Click for more
400305 CTD/STD cast 1992-04-14 15:29Z 57° 18' N, 1° 58' W Click for more
400317 CTD/STD cast 1992-04-14 15:44Z 57° 17' N, 1° 58' W Click for more
400329 CTD/STD cast 1992-04-14 17:33Z 57° 10' N, 2° 0' W Click for more
400330 CTD/STD cast 1992-04-14 18:16Z 57° 10' N, 2° 1' W Click for more
400342 CTD/STD cast 1992-04-14 18:43Z 57° 10' N, 2° 3' W Click for more
400354 CTD/STD cast 1992-04-14 19:00Z 57° 10' N, 2° 3' W Click for more
400366 CTD/STD cast 1992-04-14 19:30Z 57° 7' N, 2° 1' W Click for more
400378 CTD/STD cast 1992-04-14 19:53Z 57° 7' N, 2° 1' W Click for more
400391 CTD/STD cast 1992-04-14 20:18Z 57° 7' N, 2° 0' W Click for more
400409 CTD/STD cast 1992-04-14 20:56Z 57° 7' N, 1° 58' W Click for more
400410 CTD/STD cast 1992-04-14 21:30Z 57° 7' N, 1° 56' W Click for more
400422 CTD/STD cast 1992-04-16 06:31Z 57° 7' N, 1° 56' W Click for more
400434 CTD/STD cast 1992-04-16 06:57Z 57° 7' N, 1° 54' W Click for more
400446 CTD/STD cast 1992-04-16 10:36Z 56° 41' N, 2° 24' W Click for more
400458 CTD/STD cast 1992-04-16 10:53Z 56° 41' N, 2° 25' W Click for more
400471 CTD/STD cast 1992-04-16 13:41Z 56° 27' N, 2° 55' W Click for more
400483 CTD/STD cast 1992-04-16 14:19Z 56° 27' N, 2° 51' W Click for more
400495 CTD/STD cast 1992-04-16 15:00Z 56° 27' N, 2° 45' W Click for more
400502 CTD/STD cast 1992-04-16 16:29Z 56° 27' N, 2° 37' W Click for more
400514 CTD/STD cast 1992-04-16 17:19Z 56° 27' N, 2° 36' W Click for more
400526 CTD/STD cast 1992-04-16 17:40Z 56° 27' N, 2° 32' W Click for more
400538 CTD/STD cast 1992-04-16 18:18Z 56° 27' N, 2° 28' W Click for more
400551 CTD/STD cast 1992-04-16 18:49Z 56° 27' N, 2° 23' W Click for more
400563 CTD/STD cast 1992-04-16 19:34Z 56° 31' N, 2° 23' W Click for more
400575 CTD/STD cast 1992-04-16 20:25Z 56° 31' N, 2° 28' W Click for more
400587 CTD/STD cast 1992-04-16 20:58Z 56° 31' N, 2° 32' W Click for more
400599 CTD/STD cast 1992-04-16 21:24Z 56° 31' N, 2° 36' W Click for more
400606 CTD/STD cast 1992-04-16 21:42Z 56° 31' N, 2° 37' W Click for more
400618 CTD/STD cast 1992-04-17 07:01Z 56° 19' N, 2° 43' W Click for more
400631 CTD/STD cast 1992-04-17 07:20Z 56° 19' N, 2° 40' W Click for more
400643 CTD/STD cast 1992-04-17 07:37Z 56° 19' N, 2° 38' W Click for more
400655 CTD/STD cast 1992-04-17 07:54Z 56° 19' N, 2° 36' W Click for more
400667 CTD/STD cast 1992-04-17 08:15Z 56° 19' N, 2° 32' W Click for more
400679 CTD/STD cast 1992-04-17 08:42Z 56° 19' N, 2° 28' W Click for more
400680 CTD/STD cast 1992-04-17 09:04Z 56° 19' N, 2° 23' W Click for more
400692 CTD/STD cast 1992-04-17 09:28Z 56° 19' N, 2° 14' W Click for more
400711 CTD/STD cast 1992-04-17 09:52Z 56° 19' N, 2° 14' W Click for more
400723 CTD/STD cast 1992-04-17 10:16Z 56° 22' N, 2° 14' W Click for more
400735 CTD/STD cast 1992-04-17 10:45Z 56° 22' N, 2° 19' W Click for more
400747 CTD/STD cast 1992-04-17 11:21Z 56° 22' N, 2° 23' W Click for more
400759 CTD/STD cast 1992-04-17 11:53Z 56° 22' N, 2° 28' W Click for more
400760 CTD/STD cast 1992-04-17 12:24Z 56° 22' N, 2° 32' W Click for more
400772 CTD/STD cast 1992-04-17 12:51Z 56° 22' N, 2° 35' W Click for more
400784 CTD/STD cast 1992-04-17 13:18Z 56° 22' N, 2° 38' W Click for more
400796 CTD/STD cast 1992-04-17 13:43Z 56° 22' N, 2° 41' W Click for more
400803 CTD/STD cast 1992-04-17 14:11Z 56° 22' N, 2° 44' W Click for more
400815 CTD/STD cast 1992-04-17 15:33Z 56° 16' N, 2° 34' W Click for more
400827 CTD/STD cast 1992-04-17 15:45Z 56° 16' N, 2° 34' W Click for more
400839 CTD/STD cast 1992-04-17 16:00Z 56° 16' N, 2° 33' W Click for more
400840 CTD/STD cast 1992-04-17 16:21Z 56° 16' N, 2° 31' W Click for more
400852 CTD/STD cast 1992-04-17 16:46Z 56° 16' N, 2° 28' W Click for more
400864 CTD/STD cast 1992-04-17 17:17Z 56° 16' N, 2° 23' W Click for more
400876 CTD/STD cast 1992-04-17 17:44Z 56° 16' N, 2° 19' W Click for more
400888 CTD/STD cast 1992-04-17 18:13Z 56° 16' N, 2° 14' W Click for more
400907 CTD/STD cast 1992-04-18 07:05Z 55° 45' N, 1° 51' W Click for more
400919 CTD/STD cast 1992-04-18 07:33Z 55° 45' N, 1° 54' W Click for more
400920 CTD/STD cast 1992-04-18 07:52Z 55° 45' N, 1° 56' W Click for more
400932 CTD/STD cast 1992-04-18 08:11Z 55° 45' N, 1° 57' W Click for more
400944 CTD/STD cast 1992-04-18 08:33Z 55° 45' N, 1° 58' W Click for more
400956 CTD/STD cast 1992-04-18 18:00Z 56° 6' N, 2° 43' W Click for more
400968 CTD/STD cast 1992-04-18 18:56Z 56° 10' N, 2° 40' W Click for more
400981 CTD/STD cast 1992-04-18 20:11Z 56° 9' N, 2° 55' W Click for more
400993 CTD/STD cast 1992-04-19 07:26Z 56° 10' N, 3° 0' W Click for more
401007 CTD/STD cast 1992-04-19 08:05Z 56° 7' N, 3° 0' W Click for more
401019 CTD/STD cast 1992-04-19 08:42Z 56° 4' N, 3° 0' W Click for more
401020 CTD/STD cast 1992-04-19 09:14Z 56° 1' N, 3° 0' W Click for more
401032 CTD/STD cast 1992-04-19 09:43Z 55° 58' N, 3° 0' W Click for more
401044 CTD/STD cast 1992-04-19 10:22Z 56° 2' N, 2° 55' W Click for more
401056 CTD/STD cast 1992-04-19 11:23Z 56° 6' N, 3° 4' W Click for more
401068 CTD/STD cast 1992-04-19 11:56Z 56° 3' N, 3° 10' W Click for more
401081 CTD/STD cast 1992-04-19 12:29Z 56° 1' N, 3° 10' W Click for more
401093 CTD/STD cast 1992-04-19 13:40Z 56° 0' N, 3° 22' W Click for more
401100 CTD/STD cast 1992-04-19 14:11Z 56° 1' N, 3° 19' W Click for more
401112 CTD/STD cast 1992-04-19 15:06Z 56° 3' N, 3° 7' W Click for more
401124 CTD/STD cast 1992-04-19 15:56Z 56° 5' N, 2° 58' W Click for more
401136 CTD/STD cast 1992-04-19 17:40Z 56° 2' N, 2° 34' W Click for more
401148 CTD/STD cast 1992-04-19 18:03Z 56° 4' N, 2° 34' W Click for more
401161 CTD/STD cast 1992-04-19 18:39Z 56° 7' N, 2° 34' W Click for more
401173 CTD/STD cast 1992-04-19 19:20Z 56° 12' N, 2° 34' W Click for more
401185 CTD/STD cast 1992-04-19 19:42Z 56° 13' N, 2° 34' W Click for more

Project Database

No data currently held for this cruise in the BODC Project Database

References

Track Charts

Track Chart

Reports

No reports currently available